Captain Charles Philbrook — WBR5375 — position and weather

sailwx.info

Track history (hours):
 
Tides and Currents Weather Stations Pressure Air Temp Water Temp Dewpoint Dewpoint Depression Visibility Wind Speed Wind Dir Waves Ship Positions

Captain Charles Philbrook

Owner: MAINE STATE FERRY SERVICE, ROCKLAND, ME. More information available from US FCC via Universal Licensing System and Coast Guard Vessel Documentation Center.

Last reported at 2017-Oct-17 21:51 UTC. Time now 2017-Oct-18 02:03 UTC.
Position N 44°02' W 068°51'.

Length 40 m; draft 3.2 m.

Type: Passenger vessel. MMSI: 367342230.

Date/timePositionNaut miles runAvg speedWind from/ knotsBaromVisibWave heightAir tempDewpointWater temp
2017-Oct-17 21:51N 44°02' W 068°51'4 9.8
2017-Oct-17 21:26N 44°05' W 068°56'611.0
2017-Oct-17 20:51N 44°06' W 069°04'2 4.3
2017-Oct-17 20:29N 44°06' W 069°06'4 8.8
2017-Oct-17 19:59N 44°06' W 069°00'3 1.2
2017-Oct-17 17:53N 44°06' W 069°04'2 2.2
2017-Oct-17 17:01N 44°06' W 069°06'0 0.0
2017-Oct-17 16:59N 44°06' W 069°06'0 0.0
2017-Oct-17 16:01N 44°06' W 069°06'0 0.9
2017-Oct-17 15:47N 44°06' W 069°06'3 9.4
2017-Oct-17 15:29N 44°06' W 069°02'610.6
2017-Oct-17 14:54N 44°04' W 068°54'2 1.7
2017-Oct-17 13:48N 44°03' W 068°52'510.8
2017-Oct-17 13:19N 44°05' W 068°58'411.0
2017-Oct-17 12:59N 44°06' W 069°04'2 3.1
2017-Oct-17 12:19N 44°06' W 069°06'4 9.1
2017-Oct-17 11:51N 44°06' W 069°01'410.9
2017-Oct-17 11:27N 44°04' W 068°55'3 0.2
2017-Oct-16 21:37N 44°03' W 068°52'210.0
2017-Oct-16 21:23N 44°04' W 068°54'410.6
2017-Oct-16 21:00N 44°05' W 068°60'4 3.2
2017-Oct-16 19:50N 44°06' W 069°05'511.0
2017-Oct-16 19:25N 44°05' W 068°58'3 2.2
2017-Oct-16 17:52N 44°04' W 068°54'511.2
2017-Oct-16 17:27N 44°06' W 069°00'5 4.4
2017-Oct-16 16:25N 44°06' W 069°06'0 0.0
2017-Oct-16 15:56N 44°06' W 069°06'5 7.7
2017-Oct-16 15:15N 44°06' W 068°59'310.2
2017-Oct-16 14:59N 44°05' W 068°56'4 3.8
2017-Oct-16 13:53N 44°02' W 068°51'511.1
2017-Oct-16 13:25N 44°05' W 068°57'611.0
2017-Oct-16 12:52N 44°06' W 069°05'1 0.9
2017-Oct-16 12:14N 44°06' W 069°06'410.8
2017-Oct-16 11:54N 44°06' W 069°01'410.2
2017-Oct-16 11:29N 44°05' W 068°56'3 0.2
2017-Oct-15 21:31N 44°03' W 068°53'010.6
2017-Oct-15 21:29N 44°03' W 068°53'610.4
2017-Oct-15 20:57N 44°06' W 068°60'4 3.8
2017-Oct-15 19:54N 44°06' W 069°06'510.9
2017-Oct-15 19:28N 44°06' W 068°59'5 3.2
2017-Oct-15 17:58N 44°04' W 068°53'610.9
2017-Oct-15 17:27N 44°06' W 069°00'4 2.7
2017-Oct-15 15:48N 44°06' W 069°06'3 8.7
2017-Oct-15 15:29N 44°06' W 069°03'510.5
2017-Oct-15 15:00N 44°05' W 068°56'3 2.2
2017-Oct-15 13:46N 44°03' W 068°53'310.4
2017-Oct-15 13:29N 44°05' W 068°56'6 4.7
2017-Oct-15 12:08N 44°06' W 069°05'211.1
2017-Oct-15 11:59N 44°06' W 069°02'710.9
2017-Oct-15 11:22N 44°04' W 068°53'1 0.1
2017-Oct-14 21:38N 44°03' W 068°52'110.7
2017-Oct-14 21:30N 44°04' W 068°53'510.7
2017-Oct-14 21:00N 44°06' W 069°01'1 0.4
2017-Oct-14 19:36N 44°06' W 069°01'110.9
2017-Oct-14 19:29N 44°06' W 068°59'7 5.5
2017-Oct-14 18:14N 44°02' W 068°51'2 9.9
2017-Oct-14 18:00N 44°04' W 068°53'610.6
2017-Oct-14 17:27N 44°06' W 069°01'4 4.9
2017-Oct-14 16:40N 44°06' W 069°06'0 0.0
2017-Oct-14 16:10N 44°06' W 069°06'0 0.0
2017-Oct-14 15:56N 44°06' W 069°06'3 6.7
2017-Oct-14 15:26N 44°06' W 069°02'710.4
2017-Oct-14 14:45N 44°03' W 068°53'1 1.1
2017-Oct-14 13:37N 44°04' W 068°54'111.3
2017-Oct-14 13:30N 44°05' W 068°56'711.1
2017-Oct-14 12:54N 44°06' W 069°05'0 0.1
2017-Oct-14 12:10N 44°06' W 069°05'210.7
2017-Oct-14 11:58N 44°06' W 069°02'9 0.6
2017-Oct-13 21:47N 44°02' W 068°51'310.4
2017-Oct-13 21:29N 44°04' W 068°55'7 4.6
2017-Oct-13 19:55N 44°06' W 069°04'611.2
2017-Oct-13 19:25N 44°05' W 068°57'1 0.6
2017-Oct-13 17:58N 44°05' W 068°56'610.6
2017-Oct-13 17:26N 44°06' W 069°03'2 1.1
2017-Oct-13 15:41N 44°06' W 069°06'2 9.5
2017-Oct-13 15:30N 44°06' W 069°04'610.8
2017-Oct-13 14:56N 44°04' W 068°55'3 3.0
2017-Oct-13 13:58N 44°03' W 068°52'710.8
2017-Oct-13 13:20N 44°06' W 069°00'2 1.9
2017-Oct-13 12:05N 44°06' W 069°04'111.0
2017-Oct-13 12:00N 44°06' W 069°02'510.9
2017-Oct-13 11:29N 44°04' W 068°55'0 0.0
2017-Oct-12 21:24N 44°04' W 068°54'9 8.1
2017-Oct-12 20:17N 44°06' W 069°06'0 0.2
2017-Oct-12 20:00N 44°06' W 069°06'5 9.8
2017-Oct-12 19:30N 44°06' W 068°59'7 5.9
2017-Oct-12 18:17N 44°02' W 068°51'410.1
2017-Oct-12 17:56N 44°04' W 068°55'510.5
2017-Oct-12 17:27N 44°06' W 069°02'3 2.2
2017-Oct-12 15:50N 44°06' W 069°06'3 8.1
2017-Oct-12 15:31N 44°06' W 069°03'610.5
2017-Oct-12 14:59N 44°04' W 068°55'4 3.3
2017-Oct-12 13:54N 44°02' W 068°51'510.4
2017-Oct-12 13:28N 44°05' W 068°57'710.9
2017-Oct-12 12:50N 44°06' W 069°06'0 0.8
2017-Oct-12 12:21N 44°06' W 069°06'4 8.7
2017-Oct-12 11:55N 44°06' W 069°01'810.4
2017-Oct-12 11:12N 44°03' W 068°52'0 0.0
2017-Oct-11 21:36N 44°03' W 068°52'211.2
2017-Oct-11 21:25N 44°04' W 068°54'9 7.0
2017-Oct-11 20:06N 44°06' W 069°06'0 2.8
2017-Oct-11 20:00N 44°06' W 069°06'510.1
2017-Oct-11 19:30N 44°06' W 068°59'610.5
2017-Oct-11 18:55N 44°03' W 068°52'0 0.4
2017-Oct-11 18:09N 44°03' W 068°52'210.2
2017-Oct-11 17:56N 44°04' W 068°55'610.6
2017-Oct-11 17:23N 44°06' W 069°02'9 0.4
2017-Oct-10 21:42N 44°03' W 068°51'210.9
2017-Oct-10 21:29N 44°04' W 068°54'511.1
2017-Oct-10 21:00N 44°06' W 069°01'2 2.6
2017-Oct-10 20:09N 44°06' W 069°04'1 9.5
2017-Oct-10 20:00N 44°06' W 069°02'610.6
2017-Oct-10 19:24N 44°04' W 068°53'2 3.7
2017-Oct-10 18:45N 44°02' W 068°51'410.6
2017-Oct-10 18:20N 44°05' W 068°56'510.6
2017-Oct-10 17:49N 44°06' W 069°03'2 0.9
2017-Oct-10 15:38N 44°06' W 069°06'410.9
2017-Oct-10 15:14N 44°06' W 068°60'311.1
2017-Oct-10 15:00N 44°05' W 068°56'3 2.9
2017-Oct-10 13:51N 44°03' W 068°53'410.1
2017-Oct-10 13:26N 44°05' W 068°58'510.9
2017-Oct-10 12:57N 44°06' W 069°05'0 0.6
2017-Oct-10 12:12N 44°06' W 069°05'610.9
2017-Oct-10 11:39N 44°05' W 068°57'210.4
2017-Oct-10 11:28N 44°04' W 068°55'1 0.1
2017-Oct-09 21:30N 44°04' W 068°53'611.0
2017-Oct-09 21:00N 44°06' W 069°00'3 2.7
2017-Oct-09 19:50N 44°06' W 069°05'510.9
2017-Oct-09 19:24N 44°06' W 068°58'610.4
2017-Oct-09 18:51N 44°03' W 068°51'1 1.2
2017-Oct-09 18:14N 44°03' W 068°50'3 8.5
2017-Oct-09 17:54N 44°04' W 068°54'510.9
2017-Oct-09 17:28N 44°06' W 068°60'4 1.9
2017-Oct-09 15:37N 44°06' W 069°05'210.6
2017-Oct-09 15:24N 44°06' W 069°02'410.9
2017-Oct-09 15:00N 44°05' W 068°56'4 4.2
2017-Oct-09 14:02N 44°02' W 068°51'5 9.7
2017-Oct-09 13:30N 44°05' W 068°57'610.7
2017-Oct-09 12:58N 44°06' W 069°05'1 1.9
2017-Oct-09 12:21N 44°06' W 069°06'3 8.2
2017-Oct-09 11:57N 44°06' W 069°02'510.9
2017-Oct-09 11:27N 44°04' W 068°55'2 0.1
2017-Oct-08 18:20N 44°03' W 068°52'310.4
2017-Oct-08 17:59N 44°06' W 068°55'6 8.6
2017-Oct-08 17:16N 44°06' W 069°04'2 1.2
2017-Oct-08 15:50N 44°06' W 069°06'3 8.4
2017-Oct-08 15:28N 44°06' W 069°02'510.6
2017-Oct-08 15:00N 44°04' W 068°55'2 2.2
2017-Oct-08 13:54N 44°03' W 068°53'10 9.8
2017-Oct-08 12:55N 44°06' W 069°05'1 1.6
2017-Oct-08 12:22N 44°06' W 069°06'4 9.1
2017-Oct-08 11:56N 44°06' W 069°01'4 9.6
2017-Oct-08 11:30N 44°05' W 068°56'  
Track history (hours):
 
Tides and Currents Weather Stations Pressure Air Temp Water Temp Dewpoint Dewpoint Depression Visibility Wind Speed Wind Dir Waves Ship Positions

Captain Charles Philbrook

Owner: MAINE STATE FERRY SERVICE, ROCKLAND, ME. More information available from US FCC via Universal Licensing System and Coast Guard Vessel Documentation Center.

Last reported at 2017-Oct-17 21:51 UTC. Time now 2017-Oct-18 02:03 UTC.
Position N 44°02' W 068°51'.

Length 40 m; draft 3.2 m.

Type: Passenger vessel. MMSI: 367342230.

Date/timePositionNaut miles runAvg speedWind from/ knotsBaromVisibWave heightAir tempDewpointWater temp
2017-Oct-17 21:51N 44°02' W 068°51'4 9.8
2017-Oct-17 21:26N 44°05' W 068°56'611.0
2017-Oct-17 20:51N 44°06' W 069°04'2 4.3
2017-Oct-17 20:29N 44°06' W 069°06'4 8.8
2017-Oct-17 19:59N 44°06' W 069°00'3 1.2
2017-Oct-17 17:53N 44°06' W 069°04'2 2.2
2017-Oct-17 17:01N 44°06' W 069°06'0 0.0
2017-Oct-17 16:59N 44°06' W 069°06'0 0.0
2017-Oct-17 16:01N 44°06' W 069°06'0 0.9
2017-Oct-17 15:47N 44°06' W 069°06'3 9.4
2017-Oct-17 15:29N 44°06' W 069°02'610.6
2017-Oct-17 14:54N 44°04' W 068°54'2 1.7
2017-Oct-17 13:48N 44°03' W 068°52'510.8
2017-Oct-17 13:19N 44°05' W 068°58'411.0
2017-Oct-17 12:59N 44°06' W 069°04'2 3.1
2017-Oct-17 12:19N 44°06' W 069°06'4 9.1
2017-Oct-17 11:51N 44°06' W 069°01'410.9
2017-Oct-17 11:27N 44°04' W 068°55'3 0.2
2017-Oct-16 21:37N 44°03' W 068°52'210.0
2017-Oct-16 21:23N 44°04' W 068°54'410.6
2017-Oct-16 21:00N 44°05' W 068°60'4 3.2
2017-Oct-16 19:50N 44°06' W 069°05'511.0
2017-Oct-16 19:25N 44°05' W 068°58'3 2.2
2017-Oct-16 17:52N 44°04' W 068°54'511.2
2017-Oct-16 17:27N 44°06' W 069°00'5 4.4
2017-Oct-16 16:25N 44°06' W 069°06'0 0.0
2017-Oct-16 15:56N 44°06' W 069°06'5 7.7
2017-Oct-16 15:15N 44°06' W 068°59'310.2
2017-Oct-16 14:59N 44°05' W 068°56'4 3.8
2017-Oct-16 13:53N 44°02' W 068°51'511.1
2017-Oct-16 13:25N 44°05' W 068°57'611.0
2017-Oct-16 12:52N 44°06' W 069°05'1 0.9
2017-Oct-16 12:14N 44°06' W 069°06'410.8
2017-Oct-16 11:54N 44°06' W 069°01'410.2
2017-Oct-16 11:29N 44°05' W 068°56'3 0.2
2017-Oct-15 21:31N 44°03' W 068°53'010.6
2017-Oct-15 21:29N 44°03' W 068°53'610.4
2017-Oct-15 20:57N 44°06' W 068°60'4 3.8
2017-Oct-15 19:54N 44°06' W 069°06'510.9
2017-Oct-15 19:28N 44°06' W 068°59'5 3.2
2017-Oct-15 17:58N 44°04' W 068°53'610.9
2017-Oct-15 17:27N 44°06' W 069°00'4 2.7
2017-Oct-15 15:48N 44°06' W 069°06'3 8.7
2017-Oct-15 15:29N 44°06' W 069°03'510.5
2017-Oct-15 15:00N 44°05' W 068°56'3 2.2
2017-Oct-15 13:46N 44°03' W 068°53'310.4
2017-Oct-15 13:29N 44°05' W 068°56'6 4.7
2017-Oct-15 12:08N 44°06' W 069°05'211.1
2017-Oct-15 11:59N 44°06' W 069°02'710.9
2017-Oct-15 11:22N 44°04' W 068°53'1 0.1
2017-Oct-14 21:38N 44°03' W 068°52'110.7
2017-Oct-14 21:30N 44°04' W 068°53'510.7
2017-Oct-14 21:00N 44°06' W 069°01'1 0.4
2017-Oct-14 19:36N 44°06' W 069°01'110.9
2017-Oct-14 19:29N 44°06' W 068°59'7 5.5
2017-Oct-14 18:14N 44°02' W 068°51'2 9.9
2017-Oct-14 18:00N 44°04' W 068°53'610.6
2017-Oct-14 17:27N 44°06' W 069°01'4 4.9
2017-Oct-14 16:40N 44°06' W 069°06'0 0.0
2017-Oct-14 16:10N 44°06' W 069°06'0 0.0
2017-Oct-14 15:56N 44°06' W 069°06'3 6.7
2017-Oct-14 15:26N 44°06' W 069°02'710.4
2017-Oct-14 14:45N 44°03' W 068°53'1 1.1
2017-Oct-14 13:37N 44°04' W 068°54'111.3
2017-Oct-14 13:30N 44°05' W 068°56'711.1
2017-Oct-14 12:54N 44°06' W 069°05'0 0.1
2017-Oct-14 12:10N 44°06' W 069°05'210.7
2017-Oct-14 11:58N 44°06' W 069°02'9 0.6
2017-Oct-13 21:47N 44°02' W 068°51'310.4
2017-Oct-13 21:29N 44°04' W 068°55'7 4.6
2017-Oct-13 19:55N 44°06' W 069°04'611.2
2017-Oct-13 19:25N 44°05' W 068°57'1 0.6
2017-Oct-13 17:58N 44°05' W 068°56'610.6
2017-Oct-13 17:26N 44°06' W 069°03'2 1.1
2017-Oct-13 15:41N 44°06' W 069°06'2 9.5
2017-Oct-13 15:30N 44°06' W 069°04'610.8
2017-Oct-13 14:56N 44°04' W 068°55'3 3.0
2017-Oct-13 13:58N 44°03' W 068°52'710.8
2017-Oct-13 13:20N 44°06' W 069°00'2 1.9
2017-Oct-13 12:05N 44°06' W 069°04'111.0
2017-Oct-13 12:00N 44°06' W 069°02'510.9
2017-Oct-13 11:29N 44°04' W 068°55'0 0.0
2017-Oct-12 21:24N 44°04' W 068°54'9 8.1
2017-Oct-12 20:17N 44°06' W 069°06'0 0.2
2017-Oct-12 20:00N 44°06' W 069°06'5 9.8
2017-Oct-12 19:30N 44°06' W 068°59'7 5.9
2017-Oct-12 18:17N 44°02' W 068°51'410.1
2017-Oct-12 17:56N 44°04' W 068°55'510.5
2017-Oct-12 17:27N 44°06' W 069°02'3 2.2
2017-Oct-12 15:50N 44°06' W 069°06'3 8.1
2017-Oct-12 15:31N 44°06' W 069°03'610.5
2017-Oct-12 14:59N 44°04' W 068°55'4 3.3
2017-Oct-12 13:54N 44°02' W 068°51'510.4
2017-Oct-12 13:28N 44°05' W 068°57'710.9
2017-Oct-12 12:50N 44°06' W 069°06'0 0.8
2017-Oct-12 12:21N 44°06' W 069°06'4 8.7
2017-Oct-12 11:55N 44°06' W 069°01'810.4
2017-Oct-12 11:12N 44°03' W 068°52'0 0.0
2017-Oct-11 21:36N 44°03' W 068°52'211.2
2017-Oct-11 21:25N 44°04' W 068°54'9 7.0
2017-Oct-11 20:06N 44°06' W 069°06'0 2.8
2017-Oct-11 20:00N 44°06' W 069°06'510.1
2017-Oct-11 19:30N 44°06' W 068°59'610.5
2017-Oct-11 18:55N 44°03' W 068°52'0 0.4
2017-Oct-11 18:09N 44°03' W 068°52'210.2
2017-Oct-11 17:56N 44°04' W 068°55'610.6
2017-Oct-11 17:23N 44°06' W 069°02'9 0.4
2017-Oct-10 21:42N 44°03' W 068°51'210.9
2017-Oct-10 21:29N 44°04' W 068°54'511.1
2017-Oct-10 21:00N 44°06' W 069°01'2 2.6
2017-Oct-10 20:09N 44°06' W 069°04'1 9.5
2017-Oct-10 20:00N 44°06' W 069°02'610.6
2017-Oct-10 19:24N 44°04' W 068°53'2 3.7
2017-Oct-10 18:45N 44°02' W 068°51'410.6
2017-Oct-10 18:20N 44°05' W 068°56'510.6
2017-Oct-10 17:49N 44°06' W 069°03'2 0.9
2017-Oct-10 15:38N 44°06' W 069°06'410.9
2017-Oct-10 15:14N 44°06' W 068°60'311.1
2017-Oct-10 15:00N 44°05' W 068°56'3 2.9
2017-Oct-10 13:51N 44°03' W 068°53'410.1
2017-Oct-10 13:26N 44°05' W 068°58'510.9
2017-Oct-10 12:57N 44°06' W 069°05'0 0.6
2017-Oct-10 12:12N 44°06' W 069°05'610.9
2017-Oct-10 11:39N 44°05' W 068°57'210.4
2017-Oct-10 11:28N 44°04' W 068°55'1 0.1
2017-Oct-09 21:30N 44°04' W 068°53'611.0
2017-Oct-09 21:00N 44°06' W 069°00'3 2.7
2017-Oct-09 19:50N 44°06' W 069°05'510.9
2017-Oct-09 19:24N 44°06' W 068°58'610.4
2017-Oct-09 18:51N 44°03' W 068°51'1 1.2
2017-Oct-09 18:14N 44°03' W 068°50'3 8.5
2017-Oct-09 17:54N 44°04' W 068°54'510.9
2017-Oct-09 17:28N 44°06' W 068°60'4 1.9
2017-Oct-09 15:37N 44°06' W 069°05'210.6
2017-Oct-09 15:24N 44°06' W 069°02'410.9
2017-Oct-09 15:00N 44°05' W 068°56'4 4.2
2017-Oct-09 14:02N 44°02' W 068°51'5 9.7
2017-Oct-09 13:30N 44°05' W 068°57'610.7
2017-Oct-09 12:58N 44°06' W 069°05'1 1.9
2017-Oct-09 12:21N 44°06' W 069°06'3 8.2
2017-Oct-09 11:57N 44°06' W 069°02'510.9
2017-Oct-09 11:27N 44°04' W 068°55'2 0.1
2017-Oct-08 18:20N 44°03' W 068°52'310.4
2017-Oct-08 17:59N 44°06' W 068°55'6 8.6
2017-Oct-08 17:16N 44°06' W 069°04'2 1.2
2017-Oct-08 15:50N 44°06' W 069°06'3 8.4
2017-Oct-08 15:28N 44°06' W 069°02'510.6
2017-Oct-08 15:00N 44°04' W 068°55'2 2.2
2017-Oct-08 13:54N 44°03' W 068°53'10 9.8
2017-Oct-08 12:55N 44°06' W 069°05'1 1.6
2017-Oct-08 12:22N 44°06' W 069°06'4 9.1
2017-Oct-08 11:56N 44°06' W 069°01'4 9.6
2017-Oct-08 11:30N 44°05' W 068°56'  

Dump ship's entire track history